{"data":{"norad_id":64586,"intl_designator":"2025-135BL","name":"LEMUR-2-SEJONG-2","alt_names":[],"object_type":"PAYLOAD","status":"ACTIVE","operator":null,"country":"US","launch_date":"2025-06-23","launch_site_code":"AFWTR","launch_vehicle":null,"mission":null,"orbit_class":"UNKNOWN","rcs_meters":null,"size_class":null,"mass_kg":null,"dimensions":null,"purposes":["earth_obs"],"wikipedia_slug":null,"has_3d_model":false,"image_url":null,"decayed_at":null,"tle_current":{"epoch":"2026-05-25T05:43:09.779232Z","epoch_age_seconds":64899,"freshness":"FRESH","line1":"1 64586U 25135BL  26145.23830763  .00003965  00000+0  35429-3 0  9993","line2":"2 64586  97.7653 260.4246 0005163  54.6619 305.5084 14.96468204 50518","mean_motion":14.96468204,"eccentricity":0.0005163,"inclination_deg":97.7653,"raan_deg":260.4246,"arg_perigee_deg":54.6619,"mean_anomaly_deg":305.5084,"bstar":0.00035429,"rev_number":5051,"period_min":96.226568406261,"perigee_km":574.22794959152,"apogee_km":581.41067007705,"semimajor_km":6955.9563098343,"source":"CELESTRAK","updated_at":"2026-05-25T13:38:13.571376Z"}}}